Date String (YYYY-MM-DD hh:mm:ss) UTC,Instrument flags,Ambient pressure (hPa),Sample flow (lpm),Bypass flow (lpm),Sample temperature (°C),Ambient temperature (°C),ASC tube jacket temperature (°C),LED temperature (°C),Box temperature (°C),Sample RH (%),Span deviation,Mass concentration (μg/m³),Mass concentration (μg/m³),Mass concentration (μg/m³)
DateTimeUTC,F1_M11,P_M11,Q1_M11,Q2_M11,T1_M11,T2_M11,T3_M11,T4_M11,T5_M11,U1_M11,ZSPAN_M11,X0_M11,X2_M11,X1_M11
2022-12-17 17:00:00,,0824.0,4.99,0.00,23.0,21.9,00.0,31.8,24.9,04.6,0000.0,0010.81,0004.05,0003.34
2022-12-17 17:01:00,,0824.0,5.02,0.00,23.0,21.9,00.0,31.8,24.9,05.0,0000.0,0010.38,0004.00,0003.33
2022-12-17 17:02:00,,0824.0,4.99,0.00,23.1,21.9,00.0,31.8,24.9,04.7,0000.0,0009.22,0003.98,0003.31
2022-12-17 17:03:00,,0824.0,5.01,0.00,23.1,21.9,00.0,31.8,24.9,04.3,0000.0,0008.33,0003.87,0003.21
2022-12-17 17:04:00,,0824.1,4.99,0.00,23.1,21.9,00.0,31.8,24.9,04.4,0000.0,0007.89,0003.80,0003.14
2022-12-17 17:05:00,,0824.0,5.04,0.00,23.1,21.9,00.0,31.8,24.9,04.0,0000.0,0007.80,0003.76,0003.06
2022-12-17 17:06:00,,0824.0,4.97,0.00,23.1,21.9,00.0,31.8,24.9,04.5,0000.0,0008.51,0003.77,0003.04
2022-12-17 17:07:00,,0824.0,5.01,0.00,23.1,21.9,00.0,31.8,24.9,04.7,0000.0,0009.00,0003.83,0003.11
2022-12-17 17:08:00,,0824.0,5.00,0.00,23.1,21.9,00.0,31.8,24.9,04.4,0000.0,0008.94,0003.80,0003.12
2022-12-17 17:09:00,,0824.1,4.97,0.00,23.1,21.9,00.0,31.8,24.9,04.4,0000.0,0008.67,0003.77,0003.10
2022-12-17 17:10:00,,0824.0,5.05,0.00,23.1,21.9,00.0,31.8,24.9,04.6,0000.0,0008.97,0003.78,0003.13
2022-12-17 17:11:00,,0824.0,4.96,0.00,23.1,21.9,00.0,31.8,24.9,04.5,0000.0,0008.88,0003.77,0003.15
2022-12-17 17:12:00,,0824.0,5.04,0.00,23.1,21.9,00.0,31.8,24.9,04.3,0000.0,0008.78,0003.72,0003.11
2022-12-17 17:13:00,,0824.1,4.96,0.00,23.1,21.9,00.0,31.9,24.9,04.7,0000.0,0008.71,0003.71,0003.10
2022-12-17 17:14:00,,0824.1,5.04,0.00,23.1,21.9,00.0,31.9,24.9,04.6,0000.0,0008.81,0003.75,0003.14
2022-12-17 17:15:00,,0824.0,4.96,0.00,23.1,21.9,00.0,31.9,24.9,04.3,0000.0,0008.70,0003.73,0003.15
2022-12-17 17:16:00,,0824.0,5.03,0.00,23.2,21.9,00.0,31.9,24.9,04.6,0000.0,0008.87,0003.79,0003.20
2022-12-17 17:17:00,,0824.1,4.97,0.00,23.2,21.9,00.0,31.9,24.9,04.3,0000.0,0008.49,0003.82,0003.23
2022-12-17 17:18:00,,0824.0,5.01,0.00,23.2,21.9,00.0,31.9,24.9,04.2,0000.0,0007.99,0003.75,0003.21
2022-12-17 17:19:00,,0824.0,4.98,0.00,23.2,21.9,00.0,31.9,24.9,04.2,0000.0,0007.90,0003.72,0003.20
2022-12-17 17:20:00,,0824.0,4.99,0.00,23.2,21.9,00.0,31.9,24.9,04.4,0000.0,0008.02,0003.74,0003.20
2022-12-17 17:21:00,,0824.0,5.01,0.00,23.2,21.9,00.0,31.9,24.9,04.4,0000.0,0007.63,0003.74,0003.18
2022-12-17 17:22:00,,0824.0,5.00,0.00,23.2,21.9,00.0,31.9,24.9,04.2,0000.0,0007.42,0003.71,0003.14
2022-12-17 17:23:00,,0824.0,5.00,0.00,23.2,21.9,00.0,31.9,24.9,04.1,0000.0,0007.46,0003.69,0003.13
2022-12-17 17:24:00,,0824.0,5.00,0.00,23.2,21.9,00.0,31.9,25.0,04.3,0000.0,0007.43,0003.65,0003.09
2022-12-17 17:25:00,,0823.9,5.01,0.00,23.2,21.9,00.0,31.9,25.0,04.3,0000.0,0007.46,0003.66,0003.06
2022-12-17 17:26:00,,0824.0,4.97,0.00,23.2,21.9,00.0,31.9,25.0,04.0,0000.0,0007.47,0003.64,0003.01
2022-12-17 17:27:00,,0824.0,5.05,0.00,23.2,21.9,00.0,31.9,24.9,03.7,0000.0,0007.15,0003.55,0002.91
2022-12-17 17:28:00,,0824.0,4.97,0.00,23.2,21.9,00.0,31.9,24.9,03.8,0000.0,0006.92,0003.50,0002.81
2022-12-17 17:29:00,,0824.0,5.03,0.00,23.2,21.9,00.0,31.9,24.9,03.9,0000.0,0006.59,0003.50,0002.77
2022-12-17 17:30:00,,0823.9,4.97,0.00,23.2,21.9,00.0,31.9,25.0,04.0,0000.0,0006.73,0003.51,0002.77
2022-12-17 17:31:00,,0823.8,5.04,0.00,23.2,21.9,00.0,31.9,24.9,04.1,0000.0,0006.73,0003.51,0002.77
2022-12-17 17:32:00,,0823.8,4.96,0.00,23.2,21.9,00.0,31.9,25.0,04.2,0000.0,0006.96,0003.49,0002.75
2022-12-17 17:33:00,,0823.8,5.05,0.00,23.2,21.9,00.0,31.9,24.9,04.2,0000.0,0006.91,0003.48,0002.77
2022-12-17 17:34:00,,0823.8,4.97,0.00,23.2,21.9,00.0,32.0,24.9,04.5,0000.0,0006.92,0003.51,0002.85
2022-12-17 17:35:00,,0823.8,5.04,0.00,23.2,21.9,00.0,32.0,25.0,04.5,0000.0,0007.06,0003.57,0002.93
2022-12-17 17:36:00,,0823.8,4.97,0.00,23.2,21.9,00.0,32.0,24.9,04.4,0000.0,0007.03,0003.57,0002.96
2022-12-17 17:37:00,,0823.8,5.04,0.00,23.2,21.9,00.0,32.0,24.9,04.6,0000.0,0007.14,0003.63,0003.04
2022-12-17 17:38:00,,0823.8,4.97,0.00,23.2,21.9,00.0,32.0,24.9,04.2,0000.0,0007.37,0003.72,0003.13
2022-12-17 17:39:00,,0823.8,5.04,0.00,23.2,21.9,00.0,32.0,24.9,04.2,0000.0,0007.52,0003.76,0003.17
2022-12-17 17:40:00,,0823.8,4.97,0.00,23.2,21.9,00.0,32.0,24.9,04.3,0000.0,0007.73,0003.78,0003.20
2022-12-17 17:41:00,,0823.8,5.02,0.00,23.2,21.8,00.0,32.0,24.9,04.3,0000.0,0007.79,0003.82,0003.23
2022-12-17 17:42:00,,0823.7,4.98,0.00,23.2,21.8,00.0,32.0,24.9,04.1,0000.0,0007.78,0003.84,0003.23
2022-12-17 17:43:00,,0823.8,4.97,0.00,23.2,21.8,00.0,32.0,24.9,03.9,0000.0,0007.40,0003.77,0003.21
2022-12-17 17:44:00,,0823.7,5.03,0.00,23.2,21.8,00.0,32.0,24.9,04.0,0000.0,0007.31,0003.73,0003.18
2022-12-17 17:45:00,,0823.7,4.97,0.00,23.2,21.8,00.0,32.0,24.9,03.9,0000.0,0007.02,0003.65,0003.13
2022-12-17 17:46:00,,0823.7,5.05,0.00,23.2,21.8,00.0,32.0,24.9,04.1,0000.0,0006.74,0003.56,0003.05
2022-12-17 17:47:00,,0823.7,4.96,0.00,23.2,21.8,00.0,32.0,24.9,04.0,0000.0,0006.60,0003.51,0003.01
2022-12-17 17:48:00,,0823.7,5.04,0.00,23.2,21.8,00.0,32.0,24.9,03.7,0000.0,0007.31,0003.43,0002.90
2022-12-17 17:49:00,,0823.7,4.96,0.00,23.2,21.8,00.0,32.0,25.0,03.7,0000.0,0007.40,0003.34,0002.77
2022-12-17 17:50:00,,0823.7,5.04,0.00,23.2,21.8,00.0,32.0,25.0,03.7,0000.0,0007.40,0003.29,0002.71
2022-12-17 17:51:00,,0823.7,4.97,0.00,23.2,21.8,00.0,32.0,24.9,03.8,0000.0,0007.54,0003.25,0002.65
2022-12-17 17:52:00,,0823.7,5.04,0.00,23.2,21.8,00.0,32.0,24.9,03.8,0000.0,0007.26,0003.18,0002.56
2022-12-17 17:53:00,,0823.7,4.96,0.00,23.2,21.8,00.0,32.0,24.9,03.8,0000.0,0007.26,0003.09,0002.49
2022-12-17 17:54:00,,0823.7,5.03,0.00,23.1,21.7,00.0,32.0,24.9,03.8,0000.0,0007.56,0003.14,0002.49
2022-12-17 17:55:00,,0823.7,4.97,0.00,23.1,21.7,00.0,32.0,24.9,03.8,0000.0,0007.67,0003.14,0002.47
2022-12-17 17:56:00,,0823.7,5.04,0.00,23.1,21.7,00.0,32.0,24.9,03.9,0000.0,0007.82,0003.14,0002.46
2022-12-17 17:57:00,,0823.7,4.97,0.00,23.1,21.7,00.0,32.0,24.9,03.8,0000.0,0008.41,0003.14,0002.43
2022-12-17 17:58:00,,0823.6,5.01,0.00,23.1,21.7,00.0,32.0,24.9,03.7,0000.0,0008.37,0003.08,0002.38
2022-12-17 17:59:00,,0823.6,4.98,0.00,23.1,21.6,00.0,31.9,24.9,03.8,0000.0,0007.80,0003.09,0002.39
